Location: Nachod
(50.4170°N, 16.1670°E)
Time: 19:23:05
(UTC+02:00)

UKube-1 - Visible Passes

Search period start: 06 May 2021 00:00
Search period end: 16 May 2021 00:00
Orbit: 612 x 618 km, 98.4° (Epoch: 05 May)

Date Brightness Start Highest point End Pass type
(mag) Time Alt. Az. Time Alt. Az. Time Alt. Az.
06 May ? 21:31:24 10° N 21:35:39 61° WNW 21:39:53 10° SSW visible
07 May ? 21:47:13 10° N 21:51:18 44° WNW 21:55:22 10° SW visible
08 May ? 22:03:05 10° N 22:06:55 32° WNW 22:10:44 10° SW visible
09 May ? 22:19:02 10° N 22:22:30 24° WNW 22:25:57 10° WSW visible
10 May ? 22:35:06 10° NNW 22:38:03 18° WNW 22:41:00 10° WSW visible
11 May ? 21:13:55 10° NNE 21:18:15 88° ESE 21:22:31 10° SSW visible
11 May ? 22:51:21 10° NNW 22:53:34 14° NW 22:55:48 10° W visible
12 May ? 21:29:39 10° N 21:33:56 66° WNW 21:38:10 10° SSW visible
12 May ? 23:08:13 10° NW 23:09:03 11° NW 23:09:55 10° WNW visible
13 May ? 21:45:27 10° N 21:49:35 47° WNW 21:53:41 10° SW visible
14 May ? 22:01:18 10° N 22:05:12 34° WNW 22:09:04 10° SW visible
15 May ? 22:17:13 10° N 22:20:47 26° WNW 22:24:19 10° WSW visible
